E0445 Weather Reports


Display with metric or nautical units.
time (UTC)temp
F
wind
direction
speed
MPH
gust
MPH
rain 1hr
in
rain 24hr
in
rain mn
in
humidity
%
barometer
mb
20260903113035 66 111 1.0 3.0 0.00 0.00 0.00 98 1015.9
20260903112519 66 114 0.0 2.0 0.00 0.00 0.00 98 1015.8
20260903112019 66 0 0.0 2.0 0.00 0.00 0.00 98 1016.0
20260903111537 66 0 0.0 2.0 0.00 0.00 0.00 98 1015.9
20260903111021 65 0 0.0 2.0 0.00 0.00 0.00 98 1015.8
20260903110520 65 0 0.0 2.0 0.00 0.00 0.00 98 1015.9
20260903105519 66 0 0.0 2.0 0.00 0.01 0.00 98 1015.8
20260903105019 66 188 0.0 2.0 0.00 0.01 0.00 98 1015.9
20260903104020 66 0 0.0 3.0 0.00 0.01 0.00 98 1016.1
20260903103516 66 189 0.0 3.0 0.00 0.01 0.00 98 1016.2
20260903103038 66 0 0.0 3.0 0.00 0.01 0.00 98 1016.2
20260903102520 66 0 0.0 4.0 0.00 0.01 0.00 98 1016.5
20260903102022 66 190 1.0 4.0 0.00 0.01 0.00 98 1016.4
20260903101019 66 0 1.0 6.0 0.00 0.01 0.00 98 1016.4
20260903100517 66 192 1.0 4.0 0.00 0.01 0.00 98 1016.5
20260903095518 66 0 0.0 7.0 0.00 0.01 0.00 98 1016.7
20260903095018 65 256 2.0 7.0 0.00 0.01 0.00 98 1016.7
20260903094544 65 200 2.0 5.0 0.00 0.01 0.00 98 1016.4
20260903094019 65 201 1.0 8.0 0.00 0.01 0.00 98 1016.4
20260903093523 65 175 1.0 8.0 0.00 0.01 0.00 98 1016.1
20260903093033 65 199 3.0 9.0 0.00 0.01 0.00 98 1016.3
20260903092523 65 162 4.0 9.0 0.00 0.01 0.00 98 1016.4
20260903092018 65 207 5.0 9.0 0.00 0.01 0.00 98 1016.5
20260903091018 65 175 3.0 8.0 0.00 0.01 0.00 98 1016.3
20260903090519 65 188 2.0 6.0 0.00 0.01 0.00 98 1016.3
20260903090040 65 162 3.0 6.0 0.00 0.01 0.00 98 1016.0
20260903085518 65 198 0.0 4.0 0.00 0.01 0.00 98 1016.4
20260903085018 65 0 0.0 1.0 0.00 0.01 0.00 98 1016.4
20260903084535 65 0 0.0 4.0 0.00 0.01 0.00 98 1016.1
20260903084020 65 0 0.0 4.0 0.00 0.01 0.00 98 1015.8
20260903083519 65 183 2.0 7.0 0.00 0.01 0.00 98 1015.7
20260903083048 65 0 2.0 7.0 0.00 0.01 0.00 98 1016.0
20260903082518 65 202 1.0 5.0 0.00 0.01 0.00 98 1016.1
20260903082020 65 197 2.0 5.0 0.00 0.01 0.00 98 1016.3
20260903081022 65 194 1.0 6.0 0.00 0.01 0.00 98 1016.4
20260903080518 64 198 1.0 8.0 0.00 0.01 0.00 98 1016.4
20260903080037 64 175 3.0 8.0 0.00 0.01 0.00 98 1016.3
20260903075519 64 173 2.0 6.0 0.00 0.01 0.00 98 1016.3
20260903075020 64 181 2.0 6.0 0.00 0.01 0.00 98 1016.2
20260903074021 64 0 0.0 1.0 0.00 0.01 0.00 98 1016.4
20260903073519 64 0 0.0 1.0 0.00 0.01 0.00 97 1016.4
20260903072516 64 0 0.0 2.0 0.00 0.01 0.00 97 1016.1
20260903072018 64 0 0.0 2.0 0.00 0.01 0.00 98 1016.0
20260903071548 64 161 0.0 3.0 0.00 0.01 0.00 98 1015.8
20260903071019 64 0 0.0 3.0 0.00 0.01 0.00 98 1015.4
20260903070517 64 169 0.0 7.0 0.00 0.01 0.00 98 1015.7
20260903070034 64 194 2.0 7.0 0.00 0.01 0.00 98 1015.7
20260903065521 64 148 0.0 4.0 0.00 0.01 0.00 97 1016.1
20260903065020 64 199 0.0 6.0 0.00 0.01 0.00 97 1016.0
20260903064016 65 180 3.0 8.0 0.00 0.01 0.00 97 1016.7
20260903063519 65 171 1.0 10.0 0.00 0.01 0.00 97 1016.6
20260903062516 65 3.0 7.0 0.00 0.01 0.00 97 1016.5
20260903062020 65 187 5.0 7.0 0.00 0.01 0.00 97 1016.9
20260903061538 65 207 3.0 6.0 0.00 0.01 0.00 97 1017.3
20260903061046 65 188 3.0 5.0 0.00 0.01 0.00 97 1017.3
20260903060518 65 195 2.0 4.0 0.00 0.01 0.00 97 1017.4
20260903055523 65 190 0.0 5.0 0.00 0.01 0.00 97 1017.3
20260903055017 65 198 2.0 5.0 0.00 0.01 0.00 97 1017.3
20260903054017 65 0 1.0 4.0 0.00 0.01 0.00 97 1017.3
20260903053517 65 0 0.0 3.0 0.00 0.01 0.00 97 1017.3
20260903053038 65 196 0.0 5.0 0.00 0.01 0.00 97 1017.3
20260903052519 65 207 1.0 5.0 0.00 0.01 0.00 97 1017.4
20260903052020 65 221 0.0 4.0 0.00 0.01 0.00 97 1017.2
20260903050520 65 0 0.0 2.0 0.00 0.01 0.00 97 1017.5
20260903045521 65 0 0.0 3.0 0.00 0.01 0.00 97 1018.0
20260903045018 65 319 0.0 2.0 0.00 0.01 0.00 97 1018.3
20260903044540 65 0 0.0 2.0 0.00 0.01 0.00 97 1018.5
20260903044020 65 0 0.0 2.0 0.00 0.01 0.00 97 1018.8
20260903042521 66 317 2.0 7.0 0.00 0.01 0.00 97 1019.6
20260903042020 66 302 0.0 6.0 0.00 0.01 0.00 97 1019.6
20260903041017 66 150 2.0 7.0 0.00 0.01 0.00 96 1018.4
20260903040518 66 186 2.0 7.0 0.00 0.01 0.00 96 1018.4
20260903040051 66 196 3.0 10.0 0.00 0.01 0.00 96 1018.4
20260903035519 66 211 3.0 10.0 0.00 0.01 0.01 96 1017.8
20260903032518 67 0 1.0 5.0 0.00 0.01 0.01 96 1017.9
20260903032020 67 207 1.0 4.0 0.00 0.01 0.01 96 1018.2
20260903031018 67 0 1.0 4.0 0.00 0.01 0.01 95 1018.4
20260903030518 67 147 2.0 4.0 0.00 0.01 0.01 95 1018.9
20260903030039 67 133 1.0 3.0 0.00 0.01 0.01 95 1019.3
20260903025520 67 251 1.0 2.0 0.00 0.01 0.01 95 1019.7
20260903025018 67 0 0.0 3.0 0.00 0.01 0.01 95 1019.8
20260903024019 67 306 0.0 3.0 0.00 0.01 0.01 95 1020.4
20260903023518 67 306 1.0 4.0 0.00 0.01 0.01 95 1020.4
20260903023050 67 304 1.0 4.0 0.00 0.01 0.01 95 1020.1
20260903022521 67 268 1.0 3.0 0.00 0.01 0.01 95 1019.6
20260903022020 67 0 0.0 3.0 0.00 0.01 0.01 95 1019.4
20260903021534 67 244 1.0 4.0 0.00 0.01 0.01 94 1019.1
20260903021022 67 202 0.0 6.0 0.00 0.01 0.01 94 1018.9
20260903020520 67 207 1.0 6.0 0.00 0.01 0.01 94 1018.4
20260903015518 67 192 1.0 7.0 0.00 0.01 0.01 94 1018.2
20260903015016 67 135 3.0 8.0 0.00 0.01 0.01 94 1018.5
20260903014544 68 157 3.0 7.0 0.00 0.01 0.01 94 1018.4
20260903014020 68 186 1.0 7.0 0.00 0.01 0.01 94 1018.5
20260903013521 68 0 2.0 6.0 0.00 0.01 0.01 94 1018.6
20260903012518 68 218 1.0 5.0 0.00 0.01 0.01 94 1018.6
20260903012020 68 183 1.0 9.0 0.00 0.01 0.01 94 1018.7
20260903011019 68 198 2.0 8.0 0.00 0.01 0.01 94 1018.8
20260903010518 68 215 3.0 8.0 0.00 0.01 0.01 94 1018.4
20260903010044 68 223 2.0 5.0 0.00 0.01 0.01 94 1018.0
20260903005520 68 192 2.0 7.0 0.00 0.01 0.01 94 1017.9
20260903005014 68 178 2.0 7.0 0.00 0.01 0.01 94 1017.6
20260903004534 68 165 1.0 7.0 0.00 0.01 0.01 94 1017.4
20260903004022 68 153 0.0 6.0 0.00 0.01 0.01 94 1017.6
20260903003520 68 207 2.0 6.0 0.00 0.01 0.01 94 1017.6
20260903003039 68 168 2.0 6.0 0.00 0.01 0.01 94 1017.8
20260903002519 69 173 0.0 3.0 0.00 0.01 0.01 94 1018.0
20260903002020 69 0 0.0 6.0 0.00 0.01 0.01 94 1018.2
20260903001018 69 181 2.0 6.0 0.00 0.01 0.01 94 1018.3
20260903000519 69 204 0.0 4.0 0.00 0.01 0.01 94 1018.3
20260903000036 69 157 0.0 7.0 0.00 0.01 0.01 94 1018.1
20260902235519 69 155 0.0 7.0 0.00 0.01 0.01 94 1018.0
20260902235021 69 201 2.0 6.0 0.00 0.01 0.01 94 1018.0
20260902234549 69 190 2.0 5.0 0.00 0.01 0.01 94 1018.1
20260902234022 69 194 1.0 7.0 0.00 0.01 0.01 94 1017.9
20260902233519 69 0 1.0 7.0 0.00 0.01 0.01 94 1017.7
20260902233038 69 228 2.0 10.0 0.00 0.01 0.01 94 1017.7
20260902232521 69 120 0.0 10.0 0.00 0.01 0.01 94 1017.7
20260902232020 69 65 2.0 8.0 0.00 0.01 0.01 94 1017.7
20260902231020 69 189 3.0 10.0 0.00 0.01 0.01 94 1017.6
20260902230519 69 110 2.0 7.0 0.00 0.01 0.01 94 1017.5
20260902230036 69 152 2.0 5.0 0.00 0.01 0.01 94 1017.8
20260902225519 69 128 1.0 10.0 0.00 0.01 0.01 94 1017.8
20260902225019 70 113 1.0 10.0 0.00 0.01 0.01 94 1017.7
20260902224540 70 217 2.0 10.0 0.00 0.01 0.01 94 1017.9
20260902224018 70 203 2.0 5.0 0.00 0.01 0.01 94 1017.7
20260902223518 70 175 1.0 8.0 0.00 0.01 0.01 94 1017.7
20260902222518 70 0 2.0 6.0 0.00 0.01 0.01 94 1017.7
20260902222016 70 175 0.0 4.0 0.00 0.01 0.01 94 1017.9
20260902221536 70 226 0.0 4.0 0.00 0.01 0.01 95 1017.8
20260902221016 70 144 1.0 6.0 0.00 0.01 0.01 94 1018.0
20260902220518 70 0 1.0 6.0 0.00 0.01 0.01 94 1018.2
20260902220039 70 191 2.0 6.0 0.00 0.01 0.01 94 1018.2
20260902215520 70 191 2.0 7.0 0.00 0.01 0.01 94 1018.3
20260902215020 70 205 3.0 7.0 0.00 0.01 0.01 94 1018.3
20260902214538 70 194 0.0 4.0 0.00 0.01 0.01 95 1018.5
20260902214020 70 211 1.0 4.0 0.00 0.01 0.01 95 1018.5
20260902213519 70 151 0.0 4.0 0.00 0.01 0.01 95 1018.4
20260902212519 70 0 0.0 6.0 0.00 0.01 0.01 95 1018.4
20260902212017 70 173 2.0 5.0 0.00 0.01 0.01 95 1018.4
20260902211539 70 0 1.0 5.0 0.00 0.01 0.01 95 1018.2
20260902211021 70 209 1.0 5.0 0.00 0.01 0.01 96 1018.0
20260902210522 70 126 2.0 7.0 0.00 0.01 0.01 96 1018.1
20260902210035 70 167 1.0 7.0 0.00 0.01 0.01 96 1018.0
20260902205520 70 207 1.0 6.0 0.00 0.01 0.01 96 1017.9
20260902205018 70 193 1.0 5.0 0.00 0.01 0.01 96 1018.0
20260902204017 70 162 2.0 8.0 0.00 0.01 0.01 96 1018.1
20260902203524 70 130 0.0 7.0 0.00 0.01 0.01 96 1018.1
20260902203035 70 0 0.0 2.0 0.00 0.01 0.01 96 1018.5
20260902202522 70 0 0.0 2.0 0.00 0.01 0.01 96 1018.6
20260902200521 69 173 0.0 2.0 0.00 0.01 0.01 96 1019.0
20260902195519 69 0 0.0 0.0 0.00 0.01 0.01 96 1019.2
20260902195016 69 0 0.0 0.0 0.00 0.01 0.01 96 1019.1
20260902194018 69 0 0.0 4.0 0.00 0.01 0.01 96 1019.1
20260902193519 69 0 1.0 4.0 0.00 0.01 0.01 96 1018.9
20260902192519 69 173 0.0 3.0 0.00 0.01 0.01 96 1018.9
20260902192018 69 185 1.0 3.0 0.00 0.01 0.01 96 1019.0
20260902191020 69 182 0.0 5.0 0.00 0.01 0.01 96 1018.8
20260902190520 69 0 1.0 5.0 0.00 0.01 0.01 96 1018.8
20260902185519 69 127 1.0 5.0 0.00 0.01 0.01 96 1018.9
20260902185020 69 185 0.0 5.0 0.00 0.01 0.01 96 1018.9
20260902184550 69 0 1.0 8.0 0.00 0.01 0.01 96 1018.9
20260902184020 69 0 1.0 8.0 0.00 0.01 0.01 96 1018.9
20260902182520 70 182 1.0 4.0 0.00 0.01 0.01 96 1019.2
20260902182019 70 172 1.0 5.0 0.00 0.01 0.01 97 1019.2
20260902181021 70 192 1.0 7.0 0.00 0.01 0.01 97 1019.5
20260902180518 70 142 0.0 7.0 0.00 0.01 0.01 97 1019.5
20260902175517 70 188 1.0 7.0 0.00 0.01 0.01 97 1019.7
20260902175017 70 126 1.0 7.0 0.00 0.01 0.01 97 1020.0
20260902174019 70 167 0.0 4.0 0.00 0.01 0.01 98 1020.0
20260902173519 69 167 0.0 4.0 0.00 0.01 0.01 98 1020.0
20260902172521 69 0 0.0 4.0 0.00 0.01 0.01 98 1020.1
20260902172020 69 0 0.0 5.0 0.00 0.01 0.01 98 1020.2
20260902171020 69 198 2.0 5.0 0.00 0.01 0.01 98 1020.1
20260902170523 69 0 0.0 5.0 0.00 0.01 0.01 98 1020.1
20260902165520 69 0 0.0 4.0 0.00 0.01 0.01 98 1019.9
20260902165020 69 157 0.0 6.0 0.00 0.01 0.01 98 1019.8
20260902164018 69 157 0.0 3.0 0.00 0.01 0.01 98 1019.6
20260902163518 69 0 0.0 4.0 0.00 0.01 0.01 98 1019.7
20260902162020 69 0 0.0 4.0 0.00 0.01 0.01 98 1019.6
20260902161020 69 0 0.0 4.0 0.00 0.01 0.01 98 1019.7
20260902160520 69 138 1.0 4.0 0.00 0.01 0.01 98 1019.5
20260902154020 68 0 0.0 3.0 0.00 0.01 0.01 98 1019.9
20260902153523 68 0 0.0 3.0 0.00 0.01 0.01 98 1019.8
20260902152520 68 202 0.0 2.0 0.00 0.01 0.01 98 1019.9
20260902152020 68 0 0.0 2.0 0.00 0.01 0.01 98 1019.7
20260902151020 68 0 0.0 2.0 0.00 0.01 0.01 98 1019.6
20260902150521 68 0 0.0 1.0 0.00 0.01 0.01 98 1019.7
20260902145520 68 0 0.0 2.0 0.00 0.01 0.01 98 1019.7
20260902145021 68 0 0.0 2.0 0.00 0.01 0.01 98 1019.8
20260902144018 68 0 0.0 3.0 0.00 0.01 0.01 98 1019.8
20260902143518 68 205 1.0 3.0 0.00 0.01 0.01 98 1020.0
20260902142518 68 0 1.0 5.0 0.00 0.01 0.01 98 1019.7
20260902142016 68 201 1.0 5.0 0.00 0.01 0.01 98 1019.9
20260902141020 68 0 0.0 2.0 0.00 0.01 0.01 98 1020.0
20260902135521 68 127 0.0 3.0 0.00 0.01 0.01 98 1020.2
20260902135020 68 0 0.0 3.0 0.00 0.01 0.01 98 1020.0
20260902134019 68 0 0.0 1.0 0.00 0.01 0.01 98 1019.9
20260902133521 68 0 0.0 1.0 0.00 0.01 0.01 98 1019.9
20260902132521 68 0 0.0 3.0 0.00 0.01 0.01 98 1019.9
20260902132022 68 0 0.0 3.0 0.00 0.01 0.01 98 1019.9
20260902131018 68 0 0.0 2.0 0.00 0.01 0.01 98 1019.7
20260902130522 68 0 0.0 2.0 0.00 0.01 0.01 98 1019.7
20260902125521 68 107 0.0 2.0 0.00 0.01 0.01 98 1019.7
20260902125025 68 0 0.0 2.0 0.00 0.01 0.01 98 1019.6
20260902124536 68 0 0.0 2.0 0.00 0.01 0.01 98 1019.6
20260902124016 68 87 0.0 3.0 0.00 0.01 0.01 98 1019.4
20260902122519 68 106 0.0 2.0 0.00 0.01 0.01 98 1019.2
20260902122018 68 107 0.0 1.0 0.00 0.01 0.01 98 1019.2
20260902121018 68 0 0.0 3.0 0.00 0.01 0.01 98 1019.2
20260902120520 68 0 0.0 3.0 0.00 0.01 0.01 98 1019.0
20260902115518 69 0 0.0 3.0 0.01 0.01 0.01 98 1019.1
20260902115019 69 0 0.0 2.0 0.01 0.01 0.01 98 1019.3
20260902114018 69 0 0.0 4.0 0.01 0.01 0.01 98 1019.0
20260902113521 69 165 0.0 4.0 0.01 0.01 0.01 98 1019.2